Location: DaVinci Observatory
(43.1080°N, 78.6453°W)
Time: 16:18:21
(UTC-04:00)

N. Korean satellite - Pass Details

Date: 16 October 2017
Orbit: 459 x 517 km, 97.2° (Epoch: 18 October)

Event Time Altitude Azimuth Distance (km) Brightness Sun altitude
Rises 20:10:50 0° 203° (SSW) 2,536 10.4 -19.2°
Reaches altitude 10° 20:13:28 10° 225° (SW) 1,650 9.8 -19.7°
Maximum altitude 20:15:50 17° 267° (W) 1,278 9.7 -20.1°
Drops below altitude 10° 20:18:12 10° 309° (NW) 1,640 10.0 -20.5°
Sets 20:20:48 0° 330° (NNW) 2,513 10.7 -21.0°
